This is the latest recevied weather packets stored in our database for station/object HOWARD. If no packets are shown the sender has not sent any weather packets the latest 10 day(s).
| Time | Temp. | Humidity | Pressure | Rain* | Wind** | Luminosity | Snow |
|---|---|---|---|---|---|---|---|
| 1777882306 | 5.56° C | 57% | 1009.8 hPa | 0 mm | - | - | - |
| 1777881706 | 5.56° C | 62% | 1009.9 hPa | 0 mm | - | - | - |
| 1777881106 | 5.56° C | 64% | 1010.1 hPa | 0 mm | - | - | - |
| 1777880506 | 5.56° C | 63% | 1010.2 hPa | 0 mm | - | - | - |
| 1777879906 | 5.56° C | 63% | 1010.4 hPa | 0 mm | - | - | - |
| 1777879306 | 5.56° C | 60% | 1010.4 hPa | 0 mm | - | - | - |
| 1777878706 | 5.56° C | 60% | 1010.5 hPa | 0 mm | - | - | - |
| 1777878106 | 5.56° C | 61% | 1010.4 hPa | 0 mm | - | - | - |
| 1777876906 | 5.56° C | 63% | 1010.6 hPa | 0 mm | - | - | - |
| 1777876306 | 5.56° C | 64% | 1010.6 hPa | 0 mm | - | - | - |
| 1777875706 | 5.56° C | - | 1010.6 hPa | 0 mm | - | - | - |
| 1777875106 | 5.56° C | 67% | 1010.9 hPa | 0 mm | - | - | - |
| 1777874506 | 5.56° C | 67% | 1010.9 hPa | 0 mm | - | - | - |
| 1777873906 | 5.56° C | 68% | 1010.9 hPa | 0 mm | - | - | - |
| 1777873306 | 5.56° C | 69% | 1010.9 hPa | 0 mm | - | - | - |
| 1777872706 | 6.11° C | 68% | 1010.9 hPa | 0 mm | - | - | - |
| 1777872106 | 5.56° C | 67% | 1011 hPa | 0 mm | - | - | - |
| 1777871506 | 6.11° C | 67% | 1011 hPa | 0 mm | - | - | - |
| 1777870906 | 6.11° C | 67% | 1011 hPa | 0 mm | - | - | - |
| 1777870306 | 6.11° C | 66% | 1010.9 hPa | 0 mm | - | - | - |
| 1777869706 | 6.67° C | 66% | 1011.1 hPa | 0 mm | - | - | - |
| 1777869106 | 6.11° C | 67% | 1011.1 hPa | 0 mm | - | - | - |
| 1777868506 | 6.11° C | 68% | 1011.1 hPa | 0 mm | - | - | - |
| 1777867906 | 6.11° C | 68% | 1011.1 hPa | 0 mm | - | - | - |
| 1777867306 | 6.11° C | 68% | 1011.1 hPa | 0 mm | - | - | - |
* Rain latest hour (hover to see other rain measurements)
** Current wind speed in m/s (hover to see current wind gust speed)